| time (UTC) | temp F | wind direction | speed MPH | gust MPH | rain 1hr in | rain 24hr in | rain mn in | humidity % | barometer mb |
| 20260902221743 | 93 | 222 | 6.0 | 9.0 | 0.00 | 0.00 | 0.00 | 43 | 1015.9 |
| 20260902221243 | 94 | 255 | 5.0 | 13.0 | 0.00 | 0.00 | 0.00 | 43 | 1016.0 |
| 20260902220743 | 94 | 263 | 4.0 | 12.0 | 0.00 | 0.00 | 0.00 | 43 | 1015.9 |
| 20260902220242 | 93 | 252 | 9.0 | 16.0 | 0.00 | 0.00 | 0.00 | 41 | 1016.0 |
| 20260902215240 | 93 | 283 | 7.0 | 12.0 | 0.00 | 0.00 | 0.00 | 43 | 1016.0 |
| 20260902214238 | 93 | 239 | 12.0 | 15.0 | 0.00 | 0.00 | 0.00 | 42 | 1016.1 |
| 20260902213734 | 94 | 245 | 5.0 | 15.0 | 0.00 | 0.00 | 0.00 | 42 | 1016.1 |
| 20260902212233 | 93 | 221 | 5.0 | 12.0 | 0.00 | 0.00 | 0.00 | 42 | 1016.1 |
| 20260902211232 | 93 | 208 | 11.0 | 16.0 | 0.00 | 0.00 | 0.00 | 41 | 1016.2 |
| 20260902210730 | 93 | 249 | 10.0 | 16.0 | 0.00 | 0.00 | 0.00 | 41 | 1016.2 |
| 20260902210230 | 93 | 229 | 7.0 | 16.0 | 0.00 | 0.00 | 0.00 | 41 | 1016.3 |
| 20260902205729 | 94 | 236 | 6.0 | 14.0 | 0.00 | 0.00 | 0.00 | 41 | 1016.3 |
| 20260902205229 | 94 | 274 | 6.0 | 11.0 | 0.00 | 0.00 | 0.00 | 42 | 1016.4 |
| 20260902204728 | 94 | 270 | 6.0 | 11.0 | 0.00 | 0.00 | 0.00 | 42 | 1016.4 |
| 20260902204228 | 93 | 287 | 7.0 | 12.0 | 0.00 | 0.00 | 0.00 | 43 | 1016.4 |
| 20260902203727 | 93 | 242 | 8.0 | 13.0 | 0.00 | 0.00 | 0.00 | 42 | 1016.4 |
| 20260902203227 | 94 | 264 | 6.0 | 12.0 | 0.00 | 0.00 | 0.00 | 42 | 1016.5 |
| 20260902202726 | 93 | 274 | 11.0 | 19.0 | 0.00 | 0.00 | 0.00 | 42 | 1016.5 |
| 20260902202225 | 93 | 271 | 11.0 | 15.0 | 0.00 | 0.00 | 0.00 | 42 | 1016.5 |
| 20260902201725 | 93 | 269 | 5.0 | 11.0 | 0.00 | 0.00 | 0.00 | 43 | 1016.5 |
| 20260902201224 | 94 | 271 | 6.0 | 19.0 | 0.00 | 0.00 | 0.00 | 42 | 1016.5 |
| 20260902200724 | 94 | 280 | 7.0 | 15.0 | 0.00 | 0.00 | 0.00 | 42 | 1016.6 |
| 20260902200223 | 93 | 248 | 8.0 | 13.0 | 0.00 | 0.00 | 0.00 | 42 | 1016.6 |
| 20260902195723 | 94 | 240 | 9.0 | 17.0 | 0.00 | 0.00 | 0.00 | 41 | 1016.6 |
| 20260902195222 | 94 | 65 | 3.0 | 11.0 | 0.00 | 0.00 | 0.00 | 42 | 1016.7 |
| 20260902194722 | 93 | 214 | 10.0 | 17.0 | 0.00 | 0.00 | 0.00 | 42 | 1016.8 |
| 20260902194221 | 93 | 259 | 8.0 | 14.0 | 0.00 | 0.00 | 0.00 | 42 | 1016.8 |
| 20260902193721 | 93 | 233 | 10.0 | 16.0 | 0.00 | 0.00 | 0.00 | 41 | 1016.9 |
| 20260902193220 | 93 | 255 | 11.0 | 18.0 | 0.00 | 0.00 | 0.00 | 42 | 1017.0 |
| 20260902192218 | 93 | 217 | 7.0 | 11.0 | 0.00 | 0.00 | 0.00 | 43 | 1017.0 |
| 20260902191217 | 93 | 240 | 7.0 | 12.0 | 0.00 | 0.00 | 0.00 | 42 | 1017.1 |
| 20260902190717 | 93 | 248 | 9.0 | 17.0 | 0.00 | 0.00 | 0.00 | 41 | 1017.2 |
| 20260902190216 | 93 | 243 | 8.0 | 10.0 | 0.00 | 0.00 | 0.00 | 42 | 1017.3 |
| 20260902185716 | 93 | 225 | 8.0 | 16.0 | 0.00 | 0.00 | 0.00 | 41 | 1017.3 |
| 20260902185215 | 94 | 242 | 8.0 | 13.0 | 0.00 | 0.00 | 0.00 | 41 | 1017.3 |
| 20260902184714 | 94 | 155 | 4.0 | 13.0 | 0.00 | 0.00 | 0.00 | 41 | 1017.3 |
| 20260902184214 | 93 | 255 | 7.0 | 12.0 | 0.00 | 0.00 | 0.00 | 41 | 1017.4 |
| 20260902183713 | 93 | 242 | 6.0 | 11.0 | 0.00 | 0.00 | 0.00 | 42 | 1017.3 |
| 20260902183213 | 93 | 222 | 6.0 | 13.0 | 0.00 | 0.00 | 0.00 | 42 | 1017.5 |
| 20260902182712 | 93 | 238 | 8.0 | 16.0 | 0.00 | 0.00 | 0.00 | 43 | 1017.6 |
| 20260902182212 | 92 | 201 | 9.0 | 15.0 | 0.00 | 0.00 | 0.00 | 42 | 1017.6 |
| 20260902181711 | 92 | 217 | 10.0 | 12.0 | 0.00 | 0.00 | 0.00 | 42 | 1017.6 |
| 20260902181211 | 93 | 269 | 3.0 | 14.0 | 0.00 | 0.00 | 0.00 | 44 | 1017.5 |
| 20260902180710 | 92 | 203 | 10.0 | 16.0 | 0.00 | 0.00 | 0.00 | 43 | 1017.6 |
| 20260902180210 | 93 | 219 | 7.0 | 16.0 | 0.00 | 0.00 | 0.00 | 45 | 1017.6 |
| 20260902175709 | 92 | 288 | 10.0 | 14.0 | 0.00 | 0.00 | 0.00 | 45 | 1017.7 |
| 20260902175209 | 92 | 267 | 10.0 | 13.0 | 0.00 | 0.00 | 0.00 | 44 | 1017.8 |
| 20260902174708 | 92 | 242 | 7.0 | 11.0 | 0.00 | 0.00 | 0.00 | 44 | 1017.8 |
| 20260902174208 | 92 | 231 | 7.0 | 15.0 | 0.00 | 0.00 | 0.00 | 45 | 1017.9 |
| 20260902173707 | 92 | 263 | 11.0 | 14.0 | 0.00 | 0.00 | 0.00 | 44 | 1018.1 |
| 20260902173207 | 92 | 260 | 10.0 | 14.0 | 0.00 | 0.00 | 0.00 | 47 | 1018.1 |
| 20260902171705 | 91 | 228 | 9.0 | 16.0 | 0.00 | 0.00 | 0.00 | 47 | 1018.3 |
| 20260902171205 | 91 | 271 | 12.0 | 16.0 | 0.00 | 0.00 | 0.00 | 46 | 1018.4 |
| 20260902170704 | 91 | 278 | 8.0 | 14.0 | 0.00 | 0.00 | 0.00 | 46 | 1018.3 |
| 20260902170204 | 92 | 273 | 7.0 | 14.0 | 0.00 | 0.00 | 0.00 | 47 | 1018.3 |
| 20260902165703 | 91 | 293 | 9.0 | 11.0 | 0.00 | 0.00 | 0.00 | 47 | 1018.3 |
| 20260902165202 | 91 | 248 | 6.0 | 14.0 | 0.00 | 0.00 | 0.00 | 48 | 1018.3 |
| 20260902164702 | 91 | 270 | 7.0 | 12.0 | 0.00 | 0.00 | 0.00 | 47 | 1018.3 |
| 20260902164201 | 91 | 266 | 5.0 | 11.0 | 0.00 | 0.00 | 0.00 | 49 | 1018.3 |
| 20260902163701 | 91 | 271 | 6.0 | 7.0 | 0.00 | 0.00 | 0.00 | 49 | 1018.4 |
| 20260902162700 | 90 | 276 | 8.0 | 11.0 | 0.00 | 0.00 | 0.00 | 50 | 1018.4 |
| 20260902162159 | 90 | 218 | 7.0 | 7.0 | 0.00 | 0.00 | 0.00 | 49 | 1018.6 |
| 20260902161659 | 90 | 256 | 3.0 | 10.0 | 0.00 | 0.00 | 0.00 | 52 | 1018.4 |
| 20260902161158 | 89 | 263 | 8.0 | 11.0 | 0.00 | 0.00 | 0.00 | 52 | 1018.4 |
| 20260902160658 | 89 | 240 | 5.0 | 10.0 | 0.00 | 0.00 | 0.00 | 53 | 1018.4 |
| 20260902160157 | 89 | 256 | 6.0 | 10.0 | 0.00 | 0.00 | 0.00 | 54 | 1018.4 |
| 20260902155657 | 89 | 225 | 6.0 | 13.0 | 0.00 | 0.00 | 0.00 | 54 | 1018.6 |
| 20260902155156 | 89 | 291 | 8.0 | 9.0 | 0.00 | 0.00 | 0.00 | 53 | 1018.6 |
| 20260902154656 | 88 | 197 | 4.0 | 9.0 | 0.00 | 0.00 | 0.00 | 55 | 1018.6 |
| 20260902154155 | 88 | 271 | 6.0 | 9.0 | 0.00 | 0.00 | 0.00 | 55 | 1018.6 |
| 20260902153655 | 88 | 305 | 5.0 | 13.0 | 0.00 | 0.00 | 0.00 | 56 | 1018.7 |
| 20260902153154 | 87 | 214 | 9.0 | 9.0 | 0.00 | 0.00 | 0.00 | 57 | 1018.8 |
| 20260902152654 | 87 | 302 | 5.0 | 9.0 | 0.00 | 0.00 | 0.00 | 57 | 1018.7 |
| 20260902152153 | 87 | 253 | 6.0 | 10.0 | 0.00 | 0.00 | 0.00 | 58 | 1018.8 |
| 20260902151653 | 86 | 232 | 5.0 | 8.0 | 0.00 | 0.00 | 0.00 | 59 | 1018.8 |
| 20260902151152 | 86 | 232 | 6.0 | 8.0 | 0.00 | 0.00 | 0.00 | 59 | 1018.9 |
| 20260902145649 | 85 | 214 | 4.0 | 10.0 | 0.00 | 0.00 | 0.00 | 61 | 1018.9 |
| 20260902145149 | 85 | 221 | 6.0 | 7.0 | 0.00 | 0.00 | 0.00 | 60 | 1018.8 |
| 20260902144648 | 85 | 253 | 5.0 | 8.0 | 0.00 | 0.00 | 0.00 | 60 | 1018.9 |
| 20260902144148 | 84 | 217 | 4.0 | 8.0 | 0.00 | 0.00 | 0.00 | 61 | 1018.9 |
| 20260902143147 | 84 | 214 | 2.0 | 8.0 | 0.00 | 0.00 | 0.00 | 62 | 1018.8 |
| 20260902142646 | 84 | 212 | 4.0 | 7.0 | 0.00 | 0.00 | 0.00 | 62 | 1018.9 |
| 20260902142146 | 84 | 194 | 2.0 | 7.0 | 0.00 | 0.00 | 0.00 | 63 | 1018.8 |
| 20260902141645 | 83 | 94 | 3.0 | 8.0 | 0.00 | 0.00 | 0.00 | 64 | 1018.8 |
| 20260902141145 | 83 | 293 | 4.0 | 9.0 | 0.00 | 0.00 | 0.00 | 64 | 1018.9 |
| 20260902140644 | 82 | 238 | 4.0 | 9.0 | 0.00 | 0.00 | 0.00 | 65 | 1018.8 |
| 20260902140144 | 82 | 208 | 6.0 | 9.0 | 0.00 | 0.00 | 0.00 | 65 | 1018.8 |
| 20260902135643 | 82 | 218 | 7.0 | 8.0 | 0.00 | 0.00 | 0.00 | 65 | 1018.8 |
| 20260902135143 | 82 | 215 | 3.0 | 8.0 | 0.00 | 0.00 | 0.00 | 66 | 1018.8 |
| 20260902134723 | 81 | 214 | 5.0 | 5.0 | 0.00 | 0.00 | 0.00 | 66 | 1018.8 |
| 20260902134640 | 81 | 214 | 5.0 | 5.0 | 0.00 | 0.00 | 0.00 | 66 | 1018.8 |
| 20260902134139 | 81 | 239 | 3.0 | 8.0 | 0.00 | 0.00 | 0.00 | 67 | 1018.8 |
| 20260902133638 | 81 | 298 | 6.0 | 8.0 | 0.00 | 0.00 | 0.00 | 67 | 1018.9 |
| 20260902132636 | 80 | 266 | 6.0 | 9.0 | 0.00 | 0.00 | 0.00 | 69 | 1018.8 |
| 20260902132134 | 80 | 242 | 4.0 | 5.0 | 0.00 | 0.00 | 0.00 | 69 | 1018.7 |
| 20260902131634 | 80 | 300 | 4.0 | 7.0 | 0.00 | 0.00 | 0.00 | 70 | 1018.8 |
| 20260902130633 | 79 | 240 | 3.0 | 7.0 | 0.00 | 0.00 | 0.00 | 71 | 1018.8 |
| 20260902130131 | 79 | 211 | 1.0 | 9.0 | 0.00 | 0.00 | 0.00 | 72 | 1018.8 |
| 20260902125631 | 79 | 270 | 6.0 | 9.0 | 0.00 | 0.00 | 0.00 | 72 | 1018.9 |
| 20260902125130 | 79 | 264 | 3.0 | 8.0 | 0.00 | 0.00 | 0.00 | 73 | 1018.9 |
| 20260902124630 | 78 | 253 | 5.0 | 6.0 | 0.00 | 0.00 | 0.00 | 74 | 1018.8 |
| 20260902124129 | 78 | 238 | 1.0 | 4.0 | 0.00 | 0.00 | 0.00 | 76 | 1018.8 |
| 20260902123629 | 78 | 212 | 1.0 | 2.0 | 0.00 | 0.00 | 0.00 | 77 | 1018.7 |
| 20260902122127 | 77 | 66 | 0.0 | 0.0 | 0.00 | 0.00 | 0.00 | 79 | 1018.7 |
| 20260902121627 | 77 | 66 | 0.0 | 0.0 | 0.00 | 0.00 | 0.00 | 80 | 1018.7 |
| 20260902121202 | 76 | 66 | 0.0 | 0.0 | 0.00 | 0.00 | 0.00 | 80 | 1018.6 |
| 20260902121126 | 76 | 66 | 0.0 | 0.0 | 0.00 | 0.00 | 0.00 | 80 | 1018.6 |
| 20260902120623 | 76 | 66 | 0.0 | 0.0 | 0.00 | 0.00 | 0.00 | 81 | 1018.6 |
| 20260902120123 | 76 | 66 | 0.0 | 0.0 | 0.00 | 0.00 | 0.00 | 82 | 1018.6 |
| 20260902115123 | 75 | 66 | 0.0 | 0.0 | 0.00 | 0.00 | 0.00 | 83 | 1018.4 |
| 20260902114621 | 75 | 66 | 0.0 | 0.0 | 0.00 | 0.00 | 0.00 | 84 | 1018.3 |
| 20260902114121 | 75 | 66 | 0.0 | 0.0 | 0.00 | 0.00 | 0.00 | 84 | 1018.2 |
| 20260902113620 | 75 | 66 | 0.0 | 0.0 | 0.00 | 0.00 | 0.00 | 85 | 1018.1 |
| 20260902113120 | 75 | 66 | 0.0 | 0.0 | 0.00 | 0.00 | 0.00 | 85 | 1018.1 |
| 20260902112619 | 75 | 66 | 0.0 | 0.0 | 0.00 | 0.00 | 0.00 | 84 | 1018.0 |
| 20260902112119 | 75 | 66 | 0.0 | 0.0 | 0.00 | 0.00 | 0.00 | 85 | 1018.0 |
| 20260902111619 | 75 | 66 | 0.0 | 0.0 | 0.00 | 0.00 | 0.00 | 85 | 1018.0 |
| 20260902111118 | 75 | 66 | 0.0 | 0.0 | 0.00 | 0.00 | 0.00 | 84 | 1017.9 |
| 20260902110617 | 75 | 66 | 0.0 | 0.0 | 0.00 | 0.00 | 0.00 | 84 | 1017.9 |
| 20260902110116 | 75 | 66 | 0.0 | 0.0 | 0.00 | 0.00 | 0.00 | 85 | 1017.9 |
| 20260902105615 | 75 | 66 | 0.0 | 0.0 | 0.00 | 0.00 | 0.00 | 84 | 1017.8 |
| 20260902105115 | 75 | 66 | 0.0 | 0.0 | 0.00 | 0.00 | 0.00 | 84 | 1017.8 |
| 20260902104614 | 75 | 66 | 0.0 | 0.0 | 0.00 | 0.00 | 0.00 | 84 | 1017.9 |
| 20260902104114 | 75 | 66 | 0.0 | 2.0 | 0.00 | 0.00 | 0.00 | 84 | 1017.9 |
| 20260902103613 | 75 | 66 | 1.0 | 2.0 | 0.00 | 0.00 | 0.00 | 84 | 1018.0 |
| 20260902103113 | 75 | 93 | 0.0 | 0.0 | 0.00 | 0.00 | 0.00 | 84 | 1017.9 |
| 20260902102612 | 75 | 93 | 0.0 | 1.0 | 0.00 | 0.00 | 0.00 | 84 | 1017.9 |
| 20260902102111 | 75 | 93 | 0.0 | 2.0 | 0.00 | 0.00 | 0.00 | 84 | 1017.9 |
| 20260902101611 | 75 | 110 | 0.0 | 2.0 | 0.00 | 0.00 | 0.00 | 84 | 1017.9 |
| 20260902101111 | 75 | 111 | 0.0 | 2.0 | 0.00 | 0.00 | 0.00 | 83 | 1017.9 |
| 20260902100610 | 75 | 145 | 0.0 | 3.0 | 0.00 | 0.00 | 0.00 | 83 | 1017.9 |
| 20260902100109 | 75 | 117 | 2.0 | 0.0 | 0.00 | 0.00 | 0.00 | 83 | 1017.8 |
| 20260902095609 | 75 | 68 | 0.0 | 2.0 | 0.00 | 0.00 | 0.00 | 83 | 1017.8 |
| 20260902095108 | 75 | 68 | 0.0 | 3.0 | 0.00 | 0.00 | 0.00 | 83 | 1017.8 |
| 20260902094608 | 75 | 98 | 0.0 | 1.0 | 0.00 | 0.00 | 0.00 | 82 | 1017.8 |
| 20260902094107 | 75 | 79 | 0.0 | 0.0 | 0.00 | 0.00 | 0.00 | 82 | 1017.7 |
| 20260902093607 | 75 | 91 | 0.0 | 0.0 | 0.00 | 0.00 | 0.00 | 82 | 1017.8 |
| 20260902093108 | 75 | 91 | 0.0 | 0.0 | 0.00 | 0.00 | 0.00 | 82 | 1017.8 |
| 20260902092606 | 75 | 91 | 0.0 | 0.0 | 0.00 | 0.00 | 0.00 | 82 | 1017.8 |
| 20260902092105 | 75 | 91 | 0.0 | 0.0 | 0.00 | 0.00 | 0.00 | 81 | 1017.7 |
| 20260902091605 | 76 | 91 | 0.0 | 0.0 | 0.00 | 0.00 | 0.00 | 81 | 1017.8 |
| 20260902091104 | 76 | 91 | 0.0 | 0.0 | 0.00 | 0.00 | 0.00 | 81 | 1017.8 |
| 20260902090604 | 76 | 91 | 0.0 | 0.0 | 0.00 | 0.00 | 0.00 | 81 | 1017.7 |
| 20260902090104 | 76 | 91 | 0.0 | 0.0 | 0.00 | 0.00 | 0.00 | 80 | 1017.6 |
| 20260902085603 | 76 | 91 | 0.0 | 0.0 | 0.00 | 0.00 | 0.00 | 80 | 1017.6 |
| 20260902085102 | 76 | 91 | 0.0 | 0.0 | 0.00 | 0.00 | 0.00 | 80 | 1017.5 |
| 20260902084602 | 76 | 91 | 0.0 | 0.0 | 0.00 | 0.00 | 0.00 | 80 | 1017.5 |
| 20260902084100 | 76 | 91 | 0.0 | 0.0 | 0.00 | 0.00 | 0.00 | 80 | 1017.5 |
| 20260902083559 | 76 | 91 | 0.0 | 0.0 | 0.00 | 0.00 | 0.00 | 80 | 1017.4 |
| 20260902083059 | 76 | 91 | 0.0 | 0.0 | 0.00 | 0.00 | 0.00 | 79 | 1017.3 |
| 20260902082558 | 76 | 91 | 0.0 | 0.0 | 0.00 | 0.00 | 0.00 | 79 | 1017.3 |
| 20260902082058 | 76 | 91 | 0.0 | 0.0 | 0.00 | 0.00 | 0.00 | 79 | 1017.4 |
| 20260902081557 | 76 | 91 | 0.0 | 0.0 | 0.00 | 0.00 | 0.00 | 79 | 1017.3 |
| 20260902081057 | 77 | 91 | 0.0 | 0.0 | 0.00 | 0.00 | 0.00 | 78 | 1017.3 |
| 20260902080556 | 77 | 91 | 0.0 | 0.0 | 0.00 | 0.00 | 0.00 | 78 | 1017.3 |
| 20260902080056 | 77 | 91 | 0.0 | 0.0 | 0.00 | 0.00 | 0.00 | 78 | 1017.3 |
| 20260902075554 | 77 | 91 | 0.0 | 1.0 | 0.00 | 0.00 | 0.00 | 78 | 1017.3 |
| 20260902074552 | 77 | 193 | 0.0 | 1.0 | 0.00 | 0.00 | 0.00 | 78 | 1017.3 |
| 20260902074051 | 77 | 193 | 0.0 | 0.0 | 0.00 | 0.00 | 0.00 | 77 | 1017.2 |
| 20260902073550 | 77 | 46 | 0.0 | 1.0 | 0.00 | 0.00 | 0.00 | 78 | 1017.2 |
| 20260902073050 | 77 | 46 | 0.0 | 2.0 | 0.00 | 0.00 | 0.00 | 77 | 1017.3 |
| 20260902072549 | 77 | 238 | 0.0 | 0.0 | 0.00 | 0.00 | 0.00 | 77 | 1017.3 |
| 20260902071548 | 78 | 238 | 0.0 | 0.0 | 0.00 | 0.00 | 0.00 | 77 | 1017.1 |
| 20260902071048 | 78 | 238 | 0.0 | 0.0 | 0.00 | 0.00 | 0.00 | 75 | 1017.2 |
| 20260902070547 | 78 | 238 | 0.0 | 0.0 | 0.00 | 0.00 | 0.00 | 75 | 1017.2 |
| 20260902070046 | 78 | 238 | 0.0 | 0.0 | 0.00 | 0.00 | 0.00 | 75 | 1017.2 |
| 20260902065546 | 78 | 238 | 0.0 | 0.0 | 0.00 | 0.00 | 0.00 | 74 | 1017.2 |
| 20260902064044 | 80 | 238 | 0.0 | 0.0 | 0.00 | 0.00 | 0.00 | 71 | 1017.2 |
| 20260902063543 | 80 | 238 | 0.0 | 2.0 | 0.00 | 0.00 | 0.00 | 71 | 1017.2 |
| 20260902063042 | 80 | 238 | 0.0 | 3.0 | 0.00 | 0.00 | 0.00 | 71 | 1017.2 |
| 20260902062542 | 80 | 210 | 1.0 | 3.0 | 0.00 | 0.00 | 0.00 | 71 | 1017.3 |
| 20260902061540 | 80 | 257 | 2.0 | 3.0 | 0.00 | 0.00 | 0.00 | 71 | 1017.4 |
| 20260902061039 | 79 | 263 | 1.0 | 1.0 | 0.00 | 0.00 | 0.00 | 72 | 1017.4 |
| 20260902060539 | 79 | 256 | 0.0 | 0.0 | 0.00 | 0.00 | 0.00 | 72 | 1017.4 |
| 20260902055538 | 79 | 195 | 0.0 | 0.0 | 0.00 | 0.00 | 0.00 | 71 | 1017.4 |
| 20260902055037 | 79 | 195 | 0.0 | 0.0 | 0.00 | 0.00 | 0.00 | 71 | 1017.4 |
| 20260902054537 | 79 | 195 | 0.0 | 0.0 | 0.00 | 0.00 | 0.00 | 71 | 1017.4 |
| 20260902054036 | 79 | 195 | 0.0 | 0.0 | 0.00 | 0.00 | 0.00 | 71 | 1017.4 |
| 20260902053034 | 79 | 195 | 0.0 | 0.0 | 0.00 | 0.00 | 0.00 | 71 | 1017.4 |
| 20260902052534 | 79 | 195 | 0.0 | 0.0 | 0.00 | 0.00 | 0.00 | 71 | 1017.4 |
| 20260902051532 | 80 | 195 | 0.0 | 0.0 | 0.00 | 0.00 | 0.00 | 70 | 1017.4 |
| 20260902050532 | 80 | 195 | 0.0 | 0.0 | 0.00 | 0.00 | 0.00 | 69 | 1017.3 |
| 20260902050031 | 80 | 195 | 0.0 | 0.0 | 0.00 | 0.00 | 0.00 | 69 | 1017.2 |
| 20260902045530 | 80 | 195 | 0.0 | 0.0 | 0.00 | 0.00 | 0.00 | 69 | 1017.3 |
| 20260902045030 | 80 | 195 | 0.0 | 0.0 | 0.00 | 0.00 | 0.00 | 69 | 1017.3 |
| 20260902044529 | 80 | 195 | 0.0 | 0.0 | 0.00 | 0.00 | 0.00 | 69 | 1017.3 |
| 20260902044030 | 80 | 195 | 0.0 | 0.0 | 0.00 | 0.00 | 0.00 | 69 | 1017.3 |
| 20260902043027 | 80 | 195 | 0.0 | 0.0 | 0.00 | 0.00 | 0.00 | 68 | 1017.4 |
| 20260902042526 | 80 | 195 | 0.0 | 0.0 | 0.00 | 0.00 | 0.00 | 68 | 1017.4 |
| 20260902042026 | 81 | 195 | 0.0 | 0.0 | 0.00 | 0.00 | 0.00 | 67 | 1017.4 |
| 20260902041525 | 81 | 195 | 0.0 | 0.0 | 0.00 | 0.00 | 0.00 | 67 | 1017.5 |
| 20260902041024 | 81 | 195 | 0.0 | 0.0 | 0.00 | 0.00 | 0.00 | 67 | 1017.5 |
| 20260902040523 | 81 | 195 | 0.0 | 0.0 | 0.00 | 0.00 | 0.00 | 66 | 1017.5 |
| 20260902040023 | 81 | 195 | 0.0 | 0.0 | 0.00 | 0.00 | 0.00 | 66 | 1017.5 |
| 20260902035522 | 82 | 195 | 0.0 | 0.0 | 0.00 | 0.00 | 0.00 | 65 | 1017.4 |
| 20260902035022 | 82 | 195 | 0.0 | 0.0 | 0.00 | 0.00 | 0.00 | 64 | 1017.5 |
| 20260902034521 | 82 | 195 | 0.0 | 0.0 | 0.00 | 0.00 | 0.00 | 64 | 1017.5 |
| 20260902034020 | 83 | 195 | 0.0 | 0.0 | 0.00 | 0.00 | 0.00 | 63 | 1017.4 |
| 20260902033520 | 83 | 195 | 0.0 | 0.0 | 0.00 | 0.00 | 0.00 | 62 | 1017.5 |
| 20260902033019 | 83 | 195 | 0.0 | 0.0 | 0.00 | 0.00 | 0.00 | 61 | 1017.4 |
| 20260902032519 | 84 | 195 | 0.0 | 0.0 | 0.00 | 0.00 | 0.00 | 60 | 1017.4 |
| 20260902032018 | 84 | 195 | 0.0 | 0.0 | 0.00 | 0.00 | 0.00 | 60 | 1017.4 |
| 20260902031518 | 84 | 195 | 0.0 | 0.0 | 0.00 | 0.00 | 0.00 | 59 | 1017.4 |
| 20260902031017 | 85 | 195 | 0.0 | 3.0 | 0.00 | 0.00 | 0.00 | 58 | 1017.3 |
| 20260902030516 | 85 | 245 | 2.0 | 3.0 | 0.00 | 0.00 | 0.00 | 57 | 1017.4 |
| 20260902030015 | 85 | 233 | 2.0 | 5.0 | 0.00 | 0.00 | 0.00 | 57 | 1017.3 |
| 20260902025014 | 85 | 248 | 2.0 | 5.0 | 0.00 | 0.00 | 0.00 | 57 | 1017.4 |
| 20260902024601 | 85 | 211 | 3.0 | 4.0 | 0.00 | 0.00 | 0.00 | 57 | 1017.2 |
| 20260902024514 | 85 | 211 | 3.0 | 4.0 | 0.00 | 0.00 | 0.00 | 57 | 1017.2 |
| 20260902024013 | 86 | 128 | 3.0 | 3.0 | 0.00 | 0.00 | 0.00 | 56 | 1017.2 |
| 20260902023513 | 86 | 184 | 1.0 | 3.0 | 0.00 | 0.00 | 0.00 | 56 | 1017.2 |
| 20260902023012 | 86 | 212 | 2.0 | 6.0 | 0.00 | 0.00 | 0.00 | 55 | 1017.3 |
| 20260902022512 | 86 | 245 | 2.0 | 4.0 | 0.00 | 0.00 | 0.00 | 55 | 1017.3 |
| 20260902022011 | 86 | 224 | 2.0 | 5.0 | 0.00 | 0.00 | 0.00 | 54 | 1017.3 |
| 20260902021511 | 86 | 239 | 4.0 | 5.0 | 0.00 | 0.00 | 0.00 | 54 | 1017.2 |
| 20260902021010 | 87 | 231 | 3.0 | 4.0 | 0.00 | 0.00 | 0.00 | 54 | 1017.3 |
| 20260902020009 | 87 | 211 | 3.0 | 3.0 | 0.00 | 0.00 | 0.00 | 53 | 1017.2 |
| 20260902015508 | 87 | 228 | 2.0 | 5.0 | 0.00 | 0.00 | 0.00 | 53 | 1017.2 |
| 20260902015008 | 87 | 226 | 2.0 | 3.0 | 0.00 | 0.00 | 0.00 | 53 | 1017.1 |
| 20260902014507 | 87 | 249 | 2.0 | 4.0 | 0.00 | 0.00 | 0.00 | 52 | 1017.1 |
| 20260902014007 | 88 | 271 | 0.0 | 6.0 | 0.00 | 0.00 | 0.00 | 52 | 1017.1 |
| 20260902013506 | 88 | 284 | 2.0 | 7.0 | 0.00 | 0.00 | 0.00 | 51 | 1017.0 |
| 20260902013006 | 88 | 245 | 4.0 | 6.0 | 0.00 | 0.00 | 0.00 | 51 | 1017.1 |
| 20260902012505 | 88 | 250 | 3.0 | 4.0 | 0.00 | 0.00 | 0.00 | 50 | 1016.9 |
| 20260902012005 | 88 | 271 | 0.0 | 4.0 | 0.00 | 0.00 | 0.00 | 50 | 1016.8 |
| 20260902011504 | 88 | 219 | 2.0 | 6.0 | 0.00 | 0.00 | 0.00 | 49 | 1016.8 |
| 20260902011004 | 88 | 219 | 3.0 | 8.0 | 0.00 | 0.00 | 0.00 | 49 | 1016.8 |
| 20260902010503 | 88 | 201 | 5.0 | 6.0 | 0.00 | 0.00 | 0.00 | 49 | 1016.8 |
| 20260902010003 | 88 | 204 | 2.0 | 7.0 | 0.00 | 0.00 | 0.00 | 49 | 1016.7 |
| 20260902005502 | 89 | 165 | 4.0 | 7.0 | 0.00 | 0.00 | 0.00 | 49 | 1016.7 |
| 20260902005002 | 89 | 201 | 4.0 | 7.0 | 0.00 | 0.00 | 0.00 | 49 | 1016.6 |
| 20260902004501 | 89 | 203 | 5.0 | 8.0 | 0.00 | 0.00 | 0.00 | 49 | 1016.6 |
| 20260902004001 | 89 | 218 | 3.0 | 5.0 | 0.00 | 0.00 | 0.00 | 48 | 1016.6 |
| 20260902003000 | 89 | 240 | 2.0 | 4.0 | 0.00 | 0.00 | 0.00 | 48 | 1016.6 |
| 20260902002459 | 89 | 201 | 2.0 | 5.0 | 0.00 | 0.00 | 0.00 | 48 | 1016.5 |
| 20260902001958 | 90 | 210 | 2.0 | 5.0 | 0.00 | 0.00 | 0.00 | 47 | 1016.6 |
| 20260902001458 | 90 | 224 | 3.0 | 7.0 | 0.00 | 0.00 | 0.00 | 46 | 1016.7 |
| 20260902000957 | 90 | 222 | 2.0 | 7.0 | 0.00 | 0.00 | 0.00 | 46 | 1016.7 |
| 20260902000458 | 90 | 215 | 3.0 | 7.0 | 0.00 | 0.00 | 0.00 | 46 | 1016.8 |
| 20260901235956 | 90 | 224 | 4.0 | 4.0 | 0.00 | 0.00 | 0.00 | 46 | 1016.8 |
| 20260901235456 | 91 | 191 | 3.0 | 4.0 | 0.00 | 0.00 | 0.00 | 46 | 1016.8 |
| 20260901234955 | 91 | 215 | 3.0 | 5.0 | 0.00 | 0.00 | 0.00 | 45 | 1016.8 |
| 20260901234455 | 91 | 225 | 3.0 | 6.0 | 0.00 | 0.00 | 0.00 | 45 | 1016.8 |
| 20260901233954 | 91 | 264 | 3.0 | 9.0 | 0.00 | 0.00 | 0.00 | 45 | 1016.8 |
| 20260901233454 | 91 | 218 | 6.0 | 8.0 | 0.00 | 0.00 | 0.00 | 45 | 1016.9 |
| 20260901232953 | 92 | 243 | 6.0 | 9.0 | 0.00 | 0.00 | 0.00 | 45 | 1016.9 |
| 20260901232453 | 92 | 242 | 5.0 | 8.0 | 0.00 | 0.00 | 0.00 | 44 | 1016.9 |
| 20260901231952 | 92 | 256 | 6.0 | 8.0 | 0.00 | 0.00 | 0.00 | 44 | 1016.9 |
| 20260901231452 | 92 | 250 | 4.0 | 10.0 | 0.00 | 0.00 | 0.00 | 43 | 1016.9 |
| 20260901230951 | 92 | 224 | 8.0 | 8.0 | 0.00 | 0.00 | 0.00 | 42 | 1016.9 |
| 20260901230451 | 93 | 238 | 3.0 | 7.0 | 0.00 | 0.00 | 0.00 | 43 | 1016.9 |
| 20260901225950 | 93 | 259 | 5.0 | 9.0 | 0.00 | 0.00 | 0.00 | 42 | 1017.0 |
| 20260901225450 | 93 | 316 | 3.0 | 8.0 | 0.00 | 0.00 | 0.00 | 42 | 1016.9 |
| 20260901224949 | 93 | 253 | 4.0 | 9.0 | 0.00 | 0.00 | 0.00 | 41 | 1016.9 |
| 20260901224449 | 93 | 260 | 6.0 | 9.0 | 0.00 | 0.00 | 0.00 | 41 | 1016.9 |
| 20260901223948 | 93 | 243 | 4.0 | 9.0 | 0.00 | 0.00 | 0.00 | 41 | 1016.9 |
| 20260901223447 | 93 | 231 | 6.0 | 11.0 | 0.00 | 0.00 | 0.00 | 41 | 1016.9 |
| 20260901222947 | 93 | 267 | 7.0 | 11.0 | 0.00 | 0.00 | 0.00 | 41 | 1016.9 |
| 20260901222446 | 94 | 212 | 3.0 | 9.0 | 0.00 | 0.00 | 0.00 | 41 | 1016.8 |